Appleton, MN

11:37 AM CDT on May 26, 2017 (GMT -0500)
Appleton Municipal

Weather History for KAQP - April, 2013

Change the Weather History Date:

Tuesday, April 30, 2013

  Actual Average Record
Temperature  
Mean Temperature 56 °F -  
Max Temperature 66 °F 63 °F 105 °F (1997)
Min Temperature 46 °F 37 °F 28 °F (2004)
Degree Days  
Heating Degree Days 9    
Growing Degree Days 6 (Base 50)    
Moisture  
Dew Point 38 °F    
Average Humidity 49    
Maximum Humidity 82    
Minimum Humidity 22    
Precipitation  
Precipitation 0.00 in - - ()
Sea Level Pressure  
Sea Level Pressure 29.64 in    
Wind  
Wind Speed 15 mph (WNW)    
Max Wind Speed 25 mph    
Max Gust Speed 36 mph    
Visibility 10 miles    
Events Thunderstorm    
Averages and records for this station are not official NWS values.
T = Trace of Precipitation, MM = Missing Value Source: NWS Daily Summary

Daily Weather History Graph

Daily Weather History Graph

Search for Another Location

Airport or City:

Trip Planner

Search our weather history database for the weather conditions in past years. The results will help you decide how hot, cold, wet, or windy it might be!

Date:

Astronomy

Apr. 30, 2013 Rise Set
Actual Time 6:13 AM CDT 8:29 PM CDT
Civil Twilight 5:41 AM CDT 9:01 PM CDT
Nautical Twilight 5:01 AM CDT 9:42 PM CDT
Astronomical Twilight 4:16 AM CDT 10:27 PM CDT
Moon 12:56 AM CDT (4/30) 10:41 AM CDT (4/30)
Length of Visible Light 15h 20m
Length of Day
14h 15m
Waning Gibbous, 70% of the Moon is Illuminated
Apr 30
Waning Gibbous
May 2
Last Quarter
May 9
New
May 17
First Quarter
May 24
Full

Hourly Weather History & Observations

Time (CDT) Temp. Windchill Dew Point Humidity Pressure Visibility Wind Dir Wind Speed Gust Speed Precip Events Conditions
12:14 AM 62.6 °F - 48.2 °F 59% 29.40 in 10.0 mi ESE 10.4 mph - N/A   Scattered Clouds
12:34 AM 62.6 °F - 48.2 °F 59% 29.39 in 10.0 mi SE 10.4 mph - N/A   Mostly Cloudy
12:53 AM 62.6 °F - 50.0 °F 63% 29.38 in 10.0 mi SE 11.5 mph - N/A   Scattered Clouds
1:13 AM 64.4 °F - 51.8 °F 64% 29.36 in 10.0 mi SE 13.8 mph - N/A   Clear
1:33 AM 64.4 °F - 51.8 °F 64% 29.35 in 10.0 mi SE 13.8 mph - N/A   Clear
1:53 AM 64.4 °F - 53.6 °F 68% 29.34 in 10.0 mi SE 11.5 mph 17.3 mph N/A   Clear
2:13 AM 66.2 °F - 53.6 °F 64% 29.33 in 10.0 mi SSE 16.1 mph 23.0 mph N/A   Clear
2:33 AM 66.2 °F - 53.6 °F 64% 29.31 in 10.0 mi SSE 16.1 mph 21.9 mph N/A   Clear
2:53 AM 64.4 °F - 53.6 °F 68% 29.30 in 10.0 mi SSE 15.0 mph 20.7 mph N/A   Clear
3:13 AM 64.4 °F - 53.6 °F 68% 29.29 in 10.0 mi SSE 13.8 mph - N/A   Clear
3:33 AM 64.4 °F - 53.6 °F 68% 29.28 in 10.0 mi SSE 18.4 mph 25.3 mph N/A   Clear
3:54 AM 64.4 °F - 53.6 °F 68% 29.27 in 10.0 mi SSE 17.3 mph 24.2 mph N/A   Clear
4:13 AM 64.4 °F - 53.6 °F 68% 29.28 in 10.0 mi SSE 19.6 mph 26.5 mph N/A   Clear
4:33 AM 64.4 °F - 51.8 °F 64% 29.29 in 10.0 mi South 16.1 mph 24.2 mph N/A   Clear
4:53 AM 62.6 °F - 51.8 °F 68% 29.31 in 10.0 mi South 13.8 mph 18.4 mph N/A   Clear
5:13 AM 62.6 °F - 51.8 °F 68% 29.32 in 10.0 mi SSW 12.7 mph - N/A Thunderstorm Clear
5:34 AM 62.6 °F - 48.2 °F 59% 29.36 in 10.0 mi WSW 23.0 mph 31.1 mph N/A   Clear
5:54 AM 55.4 °F - 44.6 °F 67% 29.39 in 10.0 mi WNW 25.3 mph 34.5 mph N/A   Clear
6:13 AM 51.8 °F - 44.6 °F 76% 29.42 in 10.0 mi WNW 16.1 mph - N/A   Clear
6:33 AM 50.0 °F - 44.6 °F 82% 29.44 in 10.0 mi WNW 17.3 mph - N/A   Clear
6:53 AM 50.0 °F - 44.6 °F 82% 29.47 in 10.0 mi WNW 16.1 mph - N/A   Clear
7:14 AM 51.8 °F - 44.6 °F 76% 29.48 in 10.0 mi WNW 15.0 mph - N/A   Clear
7:33 AM 51.8 °F - 44.6 °F 76% 29.50 in 10.0 mi WNW 18.4 mph 24.2 mph N/A   Clear
7:53 AM 53.6 °F - 46.4 °F 77% 29.52 in 10.0 mi WNW 18.4 mph 27.6 mph N/A   Clear
8:13 AM 53.6 °F - 46.4 °F 77% 29.55 in 10.0 mi WNW 20.7 mph 28.8 mph N/A   Clear
8:33 AM 53.6 °F - 44.6 °F 72% 29.56 in 10.0 mi WNW 20.7 mph 27.6 mph N/A   Clear
8:53 AM 55.4 °F - 44.6 °F 67% 29.56 in 10.0 mi WNW 18.4 mph 28.8 mph N/A   Clear
9:13 AM 57.2 °F - 44.6 °F 63% 29.57 in 10.0 mi NW 17.3 mph 26.5 mph N/A   Clear
9:33 AM 59.0 °F - 42.8 °F 55% 29.59 in 10.0 mi WNW 19.6 mph 27.6 mph N/A   Clear
9:53 AM 60.8 °F - 42.8 °F 52% 29.60 in 10.0 mi WNW 23.0 mph 32.2 mph N/A   Clear
10:13 AM 62.6 °F - 39.2 °F 42% 29.60 in 10.0 mi WNW 20.7 mph 31.1 mph N/A   Clear
10:33 AM 60.8 °F - 39.2 °F 45% 29.62 in 10.0 mi WNW 20.7 mph 31.1 mph N/A   Clear
10:53 AM 62.6 °F - 37.4 °F 39% 29.63 in 10.0 mi WNW 20.7 mph 27.6 mph N/A   Clear
11:14 AM 62.6 °F - 37.4 °F 39% 29.64 in 10.0 mi WNW 21.9 mph 26.5 mph N/A   Clear
11:33 AM 64.4 °F - 30.2 °F 28% 29.65 in 10.0 mi WNW 20.7 mph 28.8 mph N/A   Clear
11:53 AM 62.6 °F - 26.6 °F 26% 29.66 in 10.0 mi WNW 24.2 mph 35.7 mph N/A   Clear
12:13 PM 62.6 °F - 28.4 °F 27% 29.66 in 10.0 mi WNW 20.7 mph 27.6 mph N/A   Clear
12:33 PM 62.6 °F - 23.0 °F 22% 29.67 in 10.0 mi WNW 25.3 mph 28.8 mph N/A   Clear
12:53 PM 62.6 °F - 24.8 °F 24% 29.68 in 10.0 mi WNW 18.4 mph 23.0 mph N/A   Clear
1:13 PM 62.6 °F - 24.8 °F 24% 29.69 in 10.0 mi West 19.6 mph 25.3 mph N/A   Clear
1:33 PM 64.4 °F - 24.8 °F 22% 29.70 in 10.0 mi WNW 23.0 mph 28.8 mph N/A   Clear
1:53 PM 64.4 °F - 26.6 °F 24% 29.72 in 10.0 mi WNW 19.6 mph 27.6 mph N/A   Clear
2:13 PM 64.4 °F - 24.8 °F 22% 29.72 in 10.0 mi WNW 19.6 mph 25.3 mph N/A   Clear
2:33 PM 64.4 °F - 26.6 °F 24% 29.72 in 10.0 mi NW 18.4 mph 25.3 mph N/A   Clear
2:53 PM 64.4 °F - 26.6 °F 24% 29.73 in 10.0 mi WNW 16.1 mph 25.3 mph N/A   Clear
3:13 PM 64.4 °F - 26.6 °F 24% 29.74 in 10.0 mi WNW 20.7 mph - N/A   Clear
3:33 PM 62.6 °F - 26.6 °F 26% 29.76 in 10.0 mi WNW 15.0 mph - N/A   Clear
3:54 PM 62.6 °F - 28.4 °F 27% 29.76 in 10.0 mi WNW 19.6 mph 23.0 mph N/A   Clear
4:13 PM 62.6 °F - 28.4 °F 27% 29.78 in 10.0 mi WNW 20.7 mph - N/A   Clear
4:33 PM 60.8 °F - 28.4 °F 29% 29.79 in 10.0 mi WNW 15.0 mph - N/A   Clear
4:53 PM 60.8 °F - 30.2 °F 31% 29.80 in 10.0 mi WNW 13.8 mph - N/A   Clear
5:13 PM 60.8 °F - 30.2 °F 31% 29.82 in 10.0 mi West 11.5 mph - N/A   Clear
5:33 PM 60.8 °F - 28.4 °F 29% 29.83 in 10.0 mi WNW 11.5 mph - N/A   Clear
5:53 PM 60.8 °F - 30.2 °F 31% 29.84 in 10.0 mi West 10.4 mph - N/A   Clear
6:13 PM 60.8 °F - 30.2 °F 31% 29.86 in 10.0 mi WNW 10.4 mph - N/A   Clear
6:33 PM 59.0 °F - 32.0 °F 36% 29.88 in 10.0 mi WNW 10.4 mph - N/A   Clear
6:53 PM 57.2 °F - 32.0 °F 38% 29.89 in 10.0 mi WNW 9.2 mph - N/A   Clear
7:14 PM 57.2 °F - 33.8 °F 41% 29.88 in 10.0 mi WNW 6.9 mph - N/A   Scattered Clouds
7:34 PM 55.4 °F - 33.8 °F 44% 29.89 in 10.0 mi West 6.9 mph - N/A   Clear
7:53 PM 55.4 °F - 33.8 °F 44% 29.90 in 10.0 mi West 10.4 mph - N/A   Clear
8:14 PM 55.4 °F - 30.2 °F 38% 29.91 in 10.0 mi WNW 10.4 mph - N/A   Clear
8:34 PM 55.4 °F - 32.0 °F 41% 29.91 in 10.0 mi WNW 6.9 mph - N/A   Clear
8:53 PM 53.6 °F - 33.8 °F 47% 29.92 in 10.0 mi NW 6.9 mph - N/A   Clear
9:14 PM 53.6 °F - 33.8 °F 47% 29.95 in 10.0 mi NW 10.4 mph - N/A   Clear
9:33 PM 53.6 °F - 33.8 °F 47% 29.96 in 10.0 mi NW 9.2 mph - N/A   Scattered Clouds
9:53 PM 53.6 °F - 33.8 °F 47% 29.96 in 10.0 mi NW 11.5 mph - N/A   Mostly Cloudy
10:34 PM 51.8 °F - 33.8 °F 50% 29.98 in 10.0 mi NNW 15.0 mph 19.6 mph N/A   Scattered Clouds
10:53 PM 51.8 °F - 33.8 °F 50% 30.00 in 10.0 mi NNW 13.8 mph 20.7 mph N/A   Overcast
11:13 PM 48.2 °F - 33.8 °F 58% 30.00 in 10.0 mi NNW 25.3 mph 29.9 mph N/A   Mostly Cloudy
11:34 PM 46.4 °F 37.9 °F 33.8 °F 62% 30.02 in 10.0 mi NNW 25.3 mph 29.9 mph N/A   Scattered Clouds
11:53 PM 46.4 °F 39.0 °F 30.2 °F 53% 30.03 in 10.0 mi North 19.6 mph - N/A   Mostly Cloudy